TVF51DF LFPO-LFBZ

Flight info

Callsign TVF51DF
Flight time 1h 4m
Altitude 35000
Route AGOPA DCT ARKIP DCT ARMAL DCT ARTAX DCT BEBIX DCT LMG DCT UVELI DCT OSMOB DCT VAVIX DCT MAGEC
Aircraft A20N/M-SDE2E3FGHIRWXY/LB1

Departure

Time 2026-05-04 20:00
Airport Paris-Orly Airport (LFPO)

Arrival

Time 2026-05-04 21:05
Airport Biarritz Pays Basque airport (LFBZ)
Time Latitude Longitude Altitude Speed Heading
2026-05-04 19:35 48.72750 2.35787 297 ft 0 kts 172°
2026-05-04 19:51 48.72752 2.35787 293 ft 2 kts 172°
2026-05-04 19:51 48.72774 2.35782 297 ft 4 kts 155°
2026-05-04 19:52 48.72789 2.35758 294 ft 4 kts 93°
2026-05-04 19:52 48.72786 2.35719 293 ft 4 kts 74°
2026-05-04 19:52 48.72780 2.35688 296 ft 3 kts 75°
2026-05-04 19:52 48.72776 2.35649 296 ft 4 kts 97°
2026-05-04 19:53 48.72783 2.35611 297 ft 4 kts 124°
2026-05-04 19:53 48.72801 2.35583 291 ft 4 kts 155°
2026-05-04 19:53 48.72825 2.35571 294 ft 3 kts 164°
2026-05-04 19:53 48.72829 2.35570 293 ft 0 kts 164°
2026-05-04 19:56 48.72805 2.35579 291 ft 8 kts 171°
2026-05-04 19:56 48.72759 2.35549 294 ft 8 kts 229°
2026-05-04 19:57 48.72695 2.35500 291 ft 12 kts 169°
2026-05-04 19:57 48.72612 2.35533 293 ft 12 kts 163°
2026-05-04 19:57 48.72533 2.35567 295 ft 12 kts 165°
2026-05-04 19:57 48.72456 2.35599 291 ft 11 kts 165°
2026-05-04 19:58 48.72380 2.35630 294 ft 11 kts 165°
2026-05-04 19:58 48.72307 2.35625 292 ft 11 kts 198°
2026-05-04 19:58 48.72235 2.35603 292 ft 11 kts 177°
2026-05-04 19:58 48.72164 2.35626 292 ft 10 kts 167°
2026-05-04 19:59 48.72097 2.35658 296 ft 10 kts 153°
2026-05-04 19:59 48.72049 2.35712 293 ft 7 kts 131°
2026-05-04 19:59 48.72022 2.35770 292 ft 10 kts 123°
2026-05-04 19:59 48.71962 2.35948 292 ft 19 kts 89°
2026-05-04 20:00 48.72014 2.36259 294 ft 59 kts 74°
2026-05-04 20:00 48.72185 2.37183 288 ft 123 kts 74°
2026-05-04 20:00 48.72432 2.38652 475 ft 151 kts 77°
2026-05-04 20:00 48.72653 2.40185 1092 ft 148 kts 77°
2026-05-04 20:01 48.72834 2.41728 1706 ft 149 kts 81°
2026-05-04 20:01 48.73030 2.43322 2231 ft 167 kts 72°
2026-05-04 20:01 48.73445 2.45135 2612 ft 196 kts 70°
2026-05-04 20:01 48.73867 2.47190 3176 ft 211 kts 78°
2026-05-04 20:02 48.74068 2.49451 3783 ft 226 kts 84°
2026-05-04 20:02 48.74188 2.51972 4289 ft 250 kts 86°
2026-05-04 20:02 48.74266 2.54653 5174 ft 258 kts 90°
2026-05-04 20:02 48.73948 2.57345 6139 ft 263 kts 112°
2026-05-04 20:03 48.72899 2.59630 7060 ft 268 kts 131°
2026-05-04 20:03 48.71522 2.61566 7974 ft 273 kts 145°
2026-05-04 20:03 48.69774 2.62721 8831 ft 279 kts 170°
2026-05-04 20:03 48.67845 2.62521 9729 ft 283 kts 199°
2026-05-04 20:04 48.66176 2.60907 10403 ft 295 kts 222°
2026-05-04 20:04 48.64694 2.58580 10762 ft 319 kts 227°
2026-05-04 20:04 48.63194 2.56006 11318 ft 333 kts 228°
2026-05-04 20:04 48.61649 2.53359 12106 ft 338 kts 227°
2026-05-04 20:05 48.60074 2.50694 12691 ft 341 kts 227°
2026-05-04 20:05 48.58484 2.48037 13200 ft 345 kts 226°
2026-05-04 20:05 48.56672 2.45640 14038 ft 348 kts 216°
2026-05-04 20:05 48.54667 2.43557 14866 ft 351 kts 213°
2026-05-04 20:06 48.52601 2.41560 15683 ft 354 kts 212°
2026-05-04 20:06 48.50503 2.39585 16497 ft 358 kts 212°
2026-05-04 20:06 48.48374 2.37604 17275 ft 361 kts 212°
2026-05-04 20:06 48.46219 2.35608 18053 ft 365 kts 212°
2026-05-04 20:07 48.44042 2.33597 18729 ft 369 kts 212°
2026-05-04 20:07 48.41846 2.31574 19413 ft 371 kts 211°
2026-05-04 20:07 48.39639 2.29543 20129 ft 373 kts 211°
2026-05-04 20:07 48.37422 2.27506 20842 ft 375 kts 211°
2026-05-04 20:08 48.35215 2.25481 21525 ft 377 kts 211°
2026-05-04 20:08 48.32965 2.23418 22192 ft 380 kts 211°
2026-05-04 20:08 48.30706 2.21350 22840 ft 382 kts 211°
2026-05-04 20:08 48.28424 2.19262 23469 ft 385 kts 211°
2026-05-04 20:09 48.26125 2.17162 24009 ft 387 kts 211°
2026-05-04 20:09 48.23817 2.15054 24514 ft 389 kts 210°
2026-05-04 20:09 48.21488 2.12971 25028 ft 392 kts 207°
2026-05-04 20:09 48.19003 2.11274 25511 ft 393 kts 201°
2026-05-04 20:10 48.16444 2.09836 26055 ft 393 kts 199°
2026-05-04 20:10 48.13850 2.08508 26534 ft 395 kts 198°
2026-05-04 20:10 48.11227 2.07241 27009 ft 397 kts 197°
2026-05-04 20:10 48.08589 2.06001 27465 ft 399 kts 197°
2026-05-04 20:11 48.05935 2.04764 27916 ft 400 kts 197°
2026-05-04 20:11 48.03270 2.03518 28359 ft 402 kts 197°
2026-05-04 20:11 48.00595 2.02263 28798 ft 404 kts 197°
2026-05-04 20:11 47.97907 2.00994 29223 ft 406 kts 197°
2026-05-04 20:12 47.95212 1.99719 29645 ft 407 kts 197°
2026-05-04 20:12 47.92541 1.98454 30029 ft 409 kts 197°
2026-05-04 20:12 47.89791 1.97150 30383 ft 410 kts 197°
2026-05-04 20:12 47.87064 1.95859 30788 ft 410 kts 197°
2026-05-04 20:13 47.84360 1.94580 31339 ft 405 kts 197°
2026-05-04 20:13 47.81724 1.93335 31947 ft 400 kts 198°
2026-05-04 20:13 47.79094 1.92095 32530 ft 394 kts 198°
2026-05-04 20:13 47.76496 1.90871 33102 ft 389 kts 198°
2026-05-04 20:14 47.73935 1.89667 33654 ft 384 kts 198°
2026-05-04 20:14 47.71397 1.88475 34110 ft 381 kts 198°
2026-05-04 20:14 47.68869 1.87287 34325 ft 383 kts 198°
2026-05-04 20:14 47.66322 1.86092 34469 ft 386 kts 198°
2026-05-04 20:15 47.63752 1.84888 34656 ft 388 kts 198°
2026-05-04 20:15 47.61175 1.83681 34852 ft 390 kts 198°
2026-05-04 20:15 47.58575 1.82465 34922 ft 392 kts 198°
2026-05-04 20:16 47.53371 1.80036 34928 ft 392 kts 198°
2026-05-04 20:16 47.48181 1.77619 34932 ft 392 kts 198°
2026-05-04 20:17 47.43073 1.74843 34935 ft 391 kts 206°
2026-05-04 20:17 47.38310 1.70960 34941 ft 391 kts 209°
2026-05-04 20:18 47.33601 1.66921 34939 ft 392 kts 209°
2026-05-04 20:18 47.28890 1.62873 34940 ft 392 kts 209°
2026-05-04 20:19 47.24167 1.58822 34937 ft 393 kts 209°
2026-05-04 20:19 47.19438 1.54774 34923 ft 393 kts 209°
2026-05-04 20:20 47.14709 1.50734 34926 ft 393 kts 208°
2026-05-04 20:20 47.09980 1.46702 34921 ft 393 kts 208°
2026-05-04 20:21 47.05254 1.42682 34924 ft 393 kts 208°
2026-05-04 20:21 46.98162 1.36663 34916 ft 393 kts 208°
2026-05-04 20:22 46.93432 1.32660 34913 ft 392 kts 208°
2026-05-04 20:22 46.88738 1.28695 34916 ft 392 kts 208°
2026-05-04 20:23 46.84012 1.24711 34914 ft 392 kts 208°
2026-05-04 20:23 46.79281 1.20732 34917 ft 392 kts 208°
2026-05-04 20:24 46.74545 1.16756 34917 ft 393 kts 208°
2026-05-04 20:24 46.69796 1.12778 34926 ft 393 kts 208°
2026-05-04 20:25 46.65051 1.08811 34920 ft 393 kts 208°
2026-05-04 20:25 46.60299 1.04846 34921 ft 394 kts 208°
2026-05-04 20:26 46.55552 1.00894 34921 ft 393 kts 208°
2026-05-04 20:26 46.50806 0.96950 34920 ft 393 kts 208°
2026-05-04 20:27 46.46064 0.93017 34927 ft 393 kts 208°
2026-05-04 20:27 46.41320 0.89092 34929 ft 393 kts 208°
2026-05-04 20:28 46.36572 0.85171 34924 ft 393 kts 208°
2026-05-04 20:28 46.31823 0.81256 34925 ft 393 kts 207°
2026-05-04 20:29 46.27870 0.78003 34934 ft 394 kts 207°
2026-05-04 20:29 46.23082 0.74072 34929 ft 396 kts 207°
2026-05-04 20:30 46.18288 0.70144 34930 ft 396 kts 207°
2026-05-04 20:30 46.13487 0.66217 34930 ft 397 kts 207°
2026-05-04 20:31 46.08676 0.62291 34933 ft 398 kts 207°
2026-05-04 20:31 46.03859 0.58367 34933 ft 398 kts 207°
2026-05-04 20:32 45.99041 0.54450 34938 ft 398 kts 207°
2026-05-04 20:32 45.94220 0.50539 34942 ft 398 kts 207°
2026-05-04 20:33 45.89396 0.46633 34952 ft 398 kts 207°
2026-05-04 20:33 45.84567 0.42731 34958 ft 398 kts 207°
2026-05-04 20:34 45.79739 0.38838 34980 ft 398 kts 207°
2026-05-04 20:34 45.74880 0.34929 34965 ft 402 kts 207°
2026-05-04 20:35 45.69996 0.31006 34944 ft 403 kts 207°
2026-05-04 20:35 45.65106 0.27086 34948 ft 403 kts 207°
2026-05-04 20:36 45.60216 0.23174 34948 ft 403 kts 207°
2026-05-04 20:36 45.55351 0.19292 34946 ft 403 kts 208°
2026-05-04 20:37 45.50445 0.15382 34952 ft 404 kts 208°
2026-05-04 20:37 45.45536 0.11479 34955 ft 404 kts 208°
2026-05-04 20:38 45.40637 0.07592 34960 ft 404 kts 208°
2026-05-04 20:38 45.35724 0.03701 34957 ft 404 kts 208°
2026-05-04 20:39 45.30803 -0.00187 34968 ft 405 kts 208°
2026-05-04 20:39 45.25868 -0.04079 34967 ft 407 kts 208°
2026-05-04 20:40 45.20910 -0.07983 34970 ft 408 kts 208°
2026-05-04 20:40 45.15941 -0.11886 34967 ft 408 kts 208°
2026-05-04 20:41 45.10979 -0.15776 34965 ft 408 kts 208°
2026-05-04 20:41 45.06015 -0.19660 34968 ft 408 kts 208°
2026-05-04 20:42 45.01046 -0.23540 34977 ft 408 kts 208°
2026-05-04 20:42 44.96080 -0.27410 34972 ft 407 kts 208°
2026-05-04 20:43 44.93601 -0.29339 34831 ft 403 kts 208°
2026-05-04 20:43 44.91164 -0.31234 34606 ft 396 kts 208°
2026-05-04 20:43 44.88743 -0.33115 33891 ft 401 kts 208°
2026-05-04 20:43 44.86278 -0.35026 33012 ft 407 kts 207°
2026-05-04 20:44 44.83793 -0.36952 32315 ft 408 kts 207°
2026-05-04 20:44 44.81325 -0.38864 31846 ft 403 kts 207°
2026-05-04 20:44 44.78878 -0.40758 31332 ft 399 kts 207°
2026-05-04 20:44 44.76454 -0.42632 30812 ft 396 kts 206°
2026-05-04 20:45 44.74042 -0.44494 30296 ft 394 kts 206°
2026-05-04 20:45 44.71648 -0.46341 29713 ft 391 kts 206°
2026-05-04 20:45 44.69307 -0.48144 29167 ft 387 kts 206°
2026-05-04 20:45 44.66956 -0.49954 28642 ft 383 kts 206°
2026-05-04 20:46 44.64629 -0.51744 28133 ft 380 kts 206°
2026-05-04 20:46 44.62320 -0.53518 27606 ft 376 kts 206°
2026-05-04 20:46 44.60034 -0.55273 27077 ft 373 kts 207°
2026-05-04 20:46 44.57761 -0.57016 26576 ft 371 kts 207°
2026-05-04 20:47 44.55505 -0.58744 26054 ft 369 kts 207°
2026-05-04 20:47 44.53256 -0.60466 25535 ft 367 kts 207°
2026-05-04 20:47 44.51019 -0.62177 25015 ft 366 kts 207°
2026-05-04 20:47 44.48785 -0.63885 24500 ft 365 kts 207°
2026-05-04 20:48 44.46553 -0.65589 23980 ft 365 kts 207°
2026-05-04 20:48 44.44328 -0.67286 23434 ft 364 kts 207°
2026-05-04 20:48 44.42103 -0.68982 22841 ft 363 kts 208°
2026-05-04 20:48 44.39892 -0.70666 22320 ft 360 kts 208°
2026-05-04 20:49 44.37698 -0.72336 21798 ft 358 kts 208°
2026-05-04 20:49 44.35516 -0.73995 21278 ft 356 kts 208°
2026-05-04 20:49 44.33348 -0.75643 20759 ft 354 kts 208°
2026-05-04 20:49 44.31189 -0.77281 20249 ft 352 kts 209°
2026-05-04 20:50 44.29040 -0.78911 19720 ft 351 kts 209°
2026-05-04 20:50 44.26897 -0.80535 19200 ft 350 kts 209°
2026-05-04 20:50 44.24761 -0.82152 18676 ft 349 kts 209°
2026-05-04 20:50 44.22629 -0.83765 18138 ft 348 kts 209°
2026-05-04 20:51 44.20504 -0.85372 17583 ft 346 kts 209°
2026-05-04 20:51 44.18395 -0.86964 17064 ft 343 kts 209°
2026-05-04 20:51 44.16299 -0.88546 16546 ft 341 kts 209°
2026-05-04 20:51 44.14220 -0.90114 16027 ft 339 kts 209°
2026-05-04 20:52 44.12156 -0.91669 15535 ft 337 kts 209°
2026-05-04 20:52 44.10102 -0.93215 15017 ft 335 kts 209°
2026-05-04 20:52 44.08060 -0.94751 14519 ft 333 kts 209°
2026-05-04 20:52 44.06028 -0.96279 14005 ft 331 kts 209°
2026-05-04 20:53 44.04006 -0.97798 13474 ft 330 kts 209°
2026-05-04 20:53 44.01999 -0.99304 12946 ft 327 kts 209°
2026-05-04 20:53 44.00007 -1.00798 12465 ft 324 kts 209°
2026-05-04 20:53 43.98058 -1.02258 11981 ft 321 kts 209°
2026-05-04 20:54 43.96074 -1.03743 11489 ft 319 kts 209°
2026-05-04 20:54 43.94157 -1.05178 11024 ft 316 kts 209°
2026-05-04 20:54 43.92227 -1.06621 10568 ft 314 kts 209°
2026-05-04 20:54 43.90347 -1.08025 10453 ft 300 kts 209°
2026-05-04 20:55 43.88548 -1.09367 10282 ft 289 kts 209°
2026-05-04 20:55 43.86783 -1.10684 9851 ft 288 kts 209°
2026-05-04 20:55 43.85024 -1.11996 9386 ft 287 kts 209°
2026-05-04 20:55 43.83270 -1.13304 8935 ft 286 kts 209°
2026-05-04 20:56 43.81526 -1.14602 8501 ft 284 kts 210°
2026-05-04 20:56 43.79782 -1.15900 8023 ft 285 kts 209°
2026-05-04 20:56 43.78037 -1.17198 7597 ft 284 kts 209°
2026-05-04 20:56 43.76306 -1.18484 7235 ft 281 kts 209°
2026-05-04 20:57 43.74532 -1.19548 6932 ft 277 kts 197°
2026-05-04 20:57 43.72657 -1.20140 6624 ft 276 kts 191°
2026-05-04 20:57 43.70776 -1.20602 6301 ft 275 kts 191°
2026-05-04 20:57 43.68896 -1.21044 5948 ft 274 kts 191°
2026-05-04 20:58 43.67024 -1.21486 5622 ft 272 kts 191°
2026-05-04 20:58 43.65164 -1.21929 5305 ft 270 kts 191°
2026-05-04 20:58 43.63318 -1.22371 4983 ft 269 kts 191°
2026-05-04 20:58 43.61482 -1.22812 4659 ft 267 kts 191°
2026-05-04 20:59 43.59656 -1.23247 4335 ft 265 kts 191°
2026-05-04 20:59 43.57844 -1.23677 4033 ft 264 kts 191°
2026-05-04 20:59 43.56040 -1.24105 3720 ft 262 kts 191°
2026-05-04 20:59 43.54249 -1.24527 3423 ft 260 kts 191°
2026-05-04 21:00 43.52466 -1.24944 3293 ft 256 kts 191°
2026-05-04 21:00 43.50749 -1.25344 3167 ft 245 kts 191°
2026-05-04 21:00 43.49117 -1.25804 3014 ft 233 kts 206°
2026-05-04 21:00 43.47955 -1.27177 2852 ft 217 kts 240°
2026-05-04 21:01 43.47365 -1.29061 2586 ft 213 kts 254°
2026-05-04 21:01 43.47116 -1.31032 2529 ft 208 kts 269°
2026-05-04 21:01 43.47095 -1.32970 2540 ft 193 kts 270°
2026-05-04 21:01 43.47070 -1.34757 2527 ft 187 kts 270°
2026-05-04 21:02 43.47041 -1.36523 2388 ft 179 kts 270°
2026-05-04 21:02 43.47013 -1.38177 2125 ft 166 kts 270°
2026-05-04 21:02 43.46996 -1.39702 1930 ft 152 kts 270°
2026-05-04 21:02 43.46978 -1.41094 1720 ft 139 kts 270°
2026-05-04 21:03 43.46961 -1.42391 1522 ft 133 kts 270°
2026-05-04 21:03 43.46946 -1.43667 1343 ft 133 kts 269°
2026-05-04 21:03 43.46930 -1.44941 1166 ft 133 kts 269°
2026-05-04 21:03 43.46914 -1.46213 973 ft 133 kts 269°
2026-05-04 21:04 43.46898 -1.47485 788 ft 133 kts 269°
2026-05-04 21:04 43.46882 -1.48751 607 ft 132 kts 270°
2026-05-04 21:04 43.46878 -1.50010 426 ft 132 kts 268°
2026-05-04 21:04 43.46853 -1.51266 254 ft 129 kts 269°
2026-05-04 21:05 43.46841 -1.52291 243 ft 70 kts 269°
2026-05-04 21:05 43.46834 -1.52712 246 ft 33 kts 269°
2026-05-04 21:05 43.46829 -1.52924 249 ft 20 kts 268°
2026-05-04 21:05 43.46838 -1.53106 249 ft 16 kts 301°
2026-05-04 21:06 43.46897 -1.53156 247 ft 8 kts 330°
2026-05-04 21:06 43.46947 -1.53192 248 ft 8 kts 335°
2026-05-04 21:06 43.47000 -1.53198 248 ft 8 kts 14°
2026-05-04 21:06 43.47045 -1.53152 248 ft 7 kts 54°
2026-05-04 21:07 43.47066 -1.53137 248 ft 3 kts 20°
2026-05-04 21:07 43.47088 -1.53127 248 ft 4 kts 18°
2026-05-04 21:07 43.47111 -1.53116 248 ft 2 kts 19°
2026-05-04 21:07 43.47114 -1.53115 248 ft 0 kts 19°